Simultaneous Nadir Overpasses (SNOs) Predictions

Prediction of SNOs between GOES-15 and METOP-B Satellite Orbit:

Table of predicted SNOs for the next 14.0 days since TLE Epoch: 2/21/2025
Index Date Time (GOES-15) GOES-15 Lat,Lon METOP-B Lat,Lon Distance(km) Time Diff (sec)
1 02/23/2025 05:08:04 -0.01, 61.41 0.16, 60.67 84.78 80
2 02/24/2025 04:50:08 -0.00, 61.41 -0.92, 65.65 482.43 80
3 02/25/2025 17:09:14 0.01, 61.39 -0.05, 61.00 43.77 80
4 02/28/2025 05:04:54 -0.01, 61.41 0.02, 61.38 4.43 80
5 03/02/2025 17:03:23 0.01, 61.38 0.06, 61.72 37.51 80
6 03/04/2025 05:22:20 -0.02, 61.42 0.93, 57.11 491.16 80
7 03/05/2025 05:04:24 -0.01, 61.43 -0.17, 62.08 75.20 80
8 03/06/2025 17:23:28 0.03, 61.40 -0.88, 57.45 450.35 80
9 03/07/2025 17:00:12 0.02, 61.41 0.23, 62.43 115.08 80
